Time,TemperatureF,DewpointF,PressureIn,WindDirection,WindDirectionDegrees,WindSpeedMPH,WindSpeedGustMPH,Humidity,HourlyPrecipIn,Conditions,Clouds,dailyrainin,SoftwareType,DateUTC
2013-07-28 00:03:00,71.4,70.0,29.97,SSE,157,1.0,4.0,95,0.00,,,0.00,weatherlink.com 1.10,2013-07-28 04:03:00,
2013-07-28 00:18:00,71.5,70.0,29.96,SSE,150,0.0,2.0,95,0.00,,,0.00,weatherlink.com 1.10,2013-07-28 04:18:00,
2013-07-28 00:33:00,71.7,70.0,29.96,SSE,167,0.0,1.0,95,0.00,,,0.00,weatherlink.com 1.10,2013-07-28 04:33:00,
2013-07-28 00:48:00,72.4,71.0,29.96,SE,138,6.0,6.0,96,0.00,,,0.00,weatherlink.com 1.10,2013-07-28 04:48:00,
2013-07-28 01:03:00,72.7,71.0,29.96,SE,134,5.0,7.0,95,0.00,,,0.00,weatherlink.com 1.10,2013-07-28 05:03:00,
2013-07-28 01:18:00,72.5,71.0,29.95,SE,135,6.0,9.0,95,0.00,,,0.00,weatherlink.com 1.10,2013-07-28 05:18:00,
2013-07-28 01:33:00,72.1,71.0,29.95,ESE,115,5.0,8.0,95,0.00,,,0.00,weatherlink.com 1.10,2013-07-28 05:33:00,
2013-07-28 01:48:00,71.6,70.0,29.95,SE,143,5.0,8.0,96,0.00,,,0.00,weatherlink.com 1.10,2013-07-28 05:48:00,
2013-07-28 02:03:00,71.2,70.0,29.94,SE,139,3.0,7.0,96,0.00,,,0.00,weatherlink.com 1.10,2013-07-28 06:03:00,
2013-07-28 02:18:00,70.9,70.0,29.94,SSE,151,6.0,10.0,96,0.00,,,0.00,weatherlink.com 1.10,2013-07-28 06:18:00,
2013-07-28 02:33:00,-999.0,-99.9,29.94,North,-999,-999.0,-999.0,-999,0.01,,,0.01,weatherlink.com 1.10,2013-07-28 06:33:00,
2013-07-28 02:48:00,-999.0,-99.9,29.93,North,-999,-999.0,-999.0,-999,0.01,,,0.01,weatherlink.com 1.10,2013-07-28 06:48:00,
2013-07-28 03:03:00,-999.0,-99.9,29.93,North,-999,-999.0,-999.0,-999,0.01,,,0.01,weatherlink.com 1.10,2013-07-28 07:03:00,
2013-07-28 03:18:00,-999.0,-99.9,29.92,North,-999,-999.0,-999.0,-999,0.01,,,0.01,weatherlink.com 1.10,2013-07-28 07:18:00,
2013-07-28 03:33:00,-999.0,-99.9,29.91,North,-999,-999.0,-999.0,-999,0.00,,,0.01,weatherlink.com 1.10,2013-07-28 07:33:00,
2013-07-28 03:48:00,-999.0,-99.9,29.91,North,-999,-999.0,-999.0,-999,0.00,,,0.01,weatherlink.com 1.10,2013-07-28 07:48:00,
2013-07-28 04:03:00,-999.0,-99.9,29.90,North,-999,-999.0,-999.0,-999,0.00,,,0.01,weatherlink.com 1.10,2013-07-28 08:03:00,
2013-07-28 04:18:00,-999.0,-99.9,29.91,North,-999,-999.0,-999.0,-999,0.00,,,0.01,weatherlink.com 1.10,2013-07-28 08:18:00,
2013-07-28 04:33:00,-999.0,-99.9,29.91,North,-999,-999.0,-999.0,-999,0.00,,,0.01,weatherlink.com 1.10,2013-07-28 08:33:00,
2013-07-28 04:49:00,-999.0,-99.9,29.91,North,-999,-999.0,-999.0,-999,0.00,,,0.01,weatherlink.com 1.10,2013-07-28 08:49:00,
2013-07-28 05:04:00,-999.0,-99.9,29.90,North,-999,-999.0,-999.0,-999,0.00,,,0.01,weatherlink.com 1.10,2013-07-28 09:04:00,
2013-07-28 05:19:00,-999.0,-99.9,29.89,North,-999,-999.0,-999.0,-999,0.00,,,0.01,weatherlink.com 1.10,2013-07-28 09:19:00,
2013-07-28 05:34:00,-999.0,-99.9,29.91,North,-999,-999.0,-999.0,-999,0.00,,,0.01,weatherlink.com 1.10,2013-07-28 09:34:00,
2013-07-28 05:49:00,-999.0,-99.9,29.91,North,-999,-999.0,-999.0,-999,0.00,,,0.01,weatherlink.com 1.10,2013-07-28 09:49:00,
2013-07-28 06:04:00,-999.0,-99.9,29.91,North,-999,-999.0,-999.0,-999,0.00,,,0.01,weatherlink.com 1.10,2013-07-28 10:04:00,
2013-07-28 06:19:00,-999.0,-99.9,29.91,North,-999,-999.0,-999.0,-999,0.00,,,0.01,weatherlink.com 1.10,2013-07-28 10:19:00,
2013-07-28 06:34:00,-999.0,-99.9,29.92,North,-999,-999.0,-999.0,-999,0.00,,,0.01,weatherlink.com 1.10,2013-07-28 10:34:00,
2013-07-28 06:49:00,-999.0,-99.9,29.92,North,-999,-999.0,-999.0,-999,0.00,,,0.01,weatherlink.com 1.10,2013-07-28 10:49:00,
2013-07-28 07:04:00,-999.0,-99.9,29.92,North,-999,-999.0,-999.0,-999,0.00,,,0.01,weatherlink.com 1.10,2013-07-28 11:04:00,
2013-07-28 07:19:00,-999.0,-99.9,29.92,North,-999,-999.0,-999.0,-999,0.00,,,0.01,weatherlink.com 1.10,2013-07-28 11:19:00,
2013-07-28 07:34:00,72.9,72.0,29.92,SSE,164,0.0,1.0,98,0.00,,,0.01,weatherlink.com 1.10,2013-07-28 11:34:00,
2013-07-28 07:49:00,74.1,73.0,29.92,WSW,243,2.0,-999.0,97,-99.99,,,0.01,weatherlink.com 1.10,2013-07-28 11:49:00,
2013-07-28 08:04:00,74.6,73.0,29.92,WNW,285,2.0,6.0,96,0.00,,,0.01,weatherlink.com 1.10,2013-07-28 12:04:00,
2013-07-28 08:19:00,74.9,74.0,29.92,WNW,297,1.0,4.0,96,0.00,,,0.01,weatherlink.com 1.10,2013-07-28 12:19:00,
2013-07-28 08:34:00,75.0,74.0,29.92,WNW,287,4.0,8.0,96,0.00,,,0.01,weatherlink.com 1.10,2013-07-28 12:34:00,
2013-07-28 08:49:00,75.2,74.0,29.92,SW,236,4.0,9.0,96,0.00,,,0.01,weatherlink.com 1.10,2013-07-28 12:49:00,
2013-07-28 09:04:00,75.4,74.0,29.91,WNW,300,2.0,7.0,96,0.00,,,0.01,weatherlink.com 1.10,2013-07-28 13:04:00,
2013-07-28 09:19:00,76.0,75.0,29.91,WNW,300,7.0,7.0,96,0.00,,,0.01,weatherlink.com 1.10,2013-07-28 13:19:00,
2013-07-28 09:35:00,77.0,75.0,29.91,NW,316,3.0,7.0,94,0.00,,,0.01,weatherlink.com 1.10,2013-07-28 13:35:00,
2013-07-28 09:50:00,77.4,76.0,29.91,NW,316,4.0,7.0,94,0.00,,,0.01,weatherlink.com 1.10,2013-07-28 13:50:00,
2013-07-28 10:05:00,78.8,76.0,29.92,West,272,4.0,5.0,91,0.00,,,0.01,weatherlink.com 1.10,2013-07-28 14:05:00,
2013-07-28 10:20:00,79.7,76.0,29.92,NW,304,6.0,8.0,89,0.00,,,0.01,weatherlink.com 1.10,2013-07-28 14:20:00,
2013-07-28 10:35:00,80.0,76.0,29.93,WNW,294,4.0,7.0,88,0.00,,,0.01,weatherlink.com 1.10,2013-07-28 14:35:00,
2013-07-28 10:50:00,79.9,76.0,29.93,WNW,285,3.0,8.0,88,0.00,,,0.01,weatherlink.com 1.10,2013-07-28 14:50:00,
2013-07-28 11:05:00,79.8,76.0,29.93,NW,323,6.0,9.0,87,0.00,,,0.01,weatherlink.com 1.10,2013-07-28 15:05:00,
2013-07-28 11:20:00,78.9,75.0,29.93,NNW,328,6.0,9.0,88,0.00,,,0.01,weatherlink.com 1.10,2013-07-28 15:20:00,
2013-07-28 11:35:00,78.5,75.0,29.94,WNW,295,5.0,8.0,88,0.00,,,0.01,weatherlink.com 1.10,2013-07-28 15:35:00,
2013-07-28 11:50:00,77.9,74.0,29.93,WNW,293,4.0,8.0,88,0.00,,,0.01,weatherlink.com 1.10,2013-07-28 15:50:00,
2013-07-28 12:05:00,76.9,74.0,29.93,NE,40,5.0,9.0,90,0.00,,,0.01,weatherlink.com 1.10,2013-07-28 16:05:00,
2013-07-28 12:20:00,76.9,74.0,29.94,NE,40,2.0,6.0,90,0.00,,,0.01,weatherlink.com 1.10,2013-07-28 16:20:00,
2013-07-28 12:35:00,76.9,74.0,29.94,NNW,331,5.0,7.0,90,0.00,,,0.01,weatherlink.com 1.10,2013-07-28 16:35:00,
2013-07-28 12:50:00,78.6,75.0,29.93,South,184,2.0,7.0,89,0.00,,,0.01,weatherlink.com 1.10,2013-07-28 16:50:00,
2013-07-28 13:05:00,78.5,75.0,29.93,SE,144,4.0,5.0,88,0.00,,,0.01,weatherlink.com 1.10,2013-07-28 17:05:00,
2013-07-28 13:20:00,79.9,75.0,29.93,West,273,4.0,7.0,86,0.00,,,0.01,weatherlink.com 1.10,2013-07-28 17:20:00,
2013-07-28 13:35:00,80.3,74.0,29.93,NW,310,2.0,7.0,82,0.00,,,0.01,weatherlink.com 1.10,2013-07-28 17:35:00,
2013-07-28 13:50:00,80.4,73.0,29.94,SE,124,3.0,4.0,79,0.00,,,0.01,weatherlink.com 1.10,2013-07-28 17:50:00,
2013-07-28 14:05:00,79.1,74.0,29.94,WSW,242,3.0,6.0,84,0.00,,,0.01,weatherlink.com 1.10,2013-07-28 18:05:00,
2013-07-28 14:20:00,78.6,75.0,29.94,SE,146,3.0,6.0,87,0.00,,,0.01,weatherlink.com 1.10,2013-07-28 18:20:00,
2013-07-28 14:35:00,79.6,75.0,29.94,SW,214,6.0,7.0,85,0.00,,,0.01,weatherlink.com 1.10,2013-07-28 18:35:00,
2013-07-28 14:50:00,77.4,73.0,29.94,SW,218,3.0,9.0,85,0.00,,,0.01,weatherlink.com 1.10,2013-07-28 18:50:00,
2013-07-28 15:05:00,75.8,72.0,29.95,SSW,197,6.0,12.0,88,0.00,,,0.01,weatherlink.com 1.10,2013-07-28 19:05:00,
2013-07-28 15:20:00,75.5,72.0,29.95,WSW,257,5.0,11.0,88,0.00,,,0.01,weatherlink.com 1.10,2013-07-28 19:20:00,
2013-07-28 15:35:00,74.4,71.0,29.95,SW,221,4.0,11.0,90,0.00,,,0.01,weatherlink.com 1.10,2013-07-28 19:35:00,
2013-07-28 15:50:00,73.2,71.0,29.96,WSW,239,3.0,11.0,92,0.00,,,0.01,weatherlink.com 1.10,2013-07-28 19:50:00,
2013-07-28 16:05:00,72.7,71.0,29.96,South,187,2.0,12.0,93,0.00,,,0.01,weatherlink.com 1.10,2013-07-28 20:05:00,
2013-07-28 16:20:00,72.8,71.0,29.96,SW,224,5.0,11.0,93,0.00,,,0.01,weatherlink.com 1.10,2013-07-28 20:20:00,
2013-07-28 16:35:00,72.6,71.0,29.96,SSW,194,6.0,8.0,94,0.00,,,0.01,weatherlink.com 1.10,2013-07-28 20:35:00,
2013-07-28 16:50:00,72.6,71.0,29.95,SE,143,3.0,7.0,94,0.00,,,0.01,weatherlink.com 1.10,2013-07-28 20:50:00,
2013-07-28 17:05:00,72.7,71.0,29.95,SE,128,3.0,10.0,93,0.00,,,0.01,weatherlink.com 1.10,2013-07-28 21:05:00,
2013-07-28 17:20:00,72.4,70.0,29.95,South,184,3.0,6.0,93,0.00,,,0.00,weatherlink.com 1.10,2013-07-28 21:20:00,
2013-07-28 17:35:00,72.4,70.0,29.95,SSE,153,2.0,5.0,93,0.00,,,0.00,weatherlink.com 1.10,2013-07-28 21:35:00,
2013-07-28 17:50:00,72.3,71.0,29.94,SSW,193,0.0,6.0,94,0.00,,,0.00,weatherlink.com 1.10,2013-07-28 21:50:00,
2013-07-28 18:05:00,72.2,70.0,29.94,SSW,200,3.0,5.0,94,0.00,,,0.00,weatherlink.com 1.10,2013-07-28 22:05:00,
2013-07-28 18:20:00,72.0,70.0,29.95,SE,142,2.0,4.0,94,0.00,,,0.00,weatherlink.com 1.10,2013-07-28 22:20:00,
2013-07-28 18:35:00,71.7,70.0,29.95,SW,230,1.0,5.0,94,0.00,,,0.00,weatherlink.com 1.10,2013-07-28 22:35:00,
2013-07-28 18:50:00,71.1,70.0,29.95,SSW,207,2.0,6.0,95,0.00,,,0.00,weatherlink.com 1.10,2013-07-28 22:50:00,
2013-07-28 19:05:00,70.9,70.0,29.95,SE,128,1.0,5.0,96,0.00,,,0.00,weatherlink.com 1.10,2013-07-28 23:05:00,
2013-07-28 19:20:00,70.9,70.0,29.95,SSW,208,1.0,5.0,96,0.00,,,0.00,weatherlink.com 1.10,2013-07-28 23:20:00,
2013-07-28 19:35:00,70.9,70.0,29.96,SW,225,0.0,2.0,96,0.00,,,0.00,weatherlink.com 1.10,2013-07-28 23:35:00,
2013-07-28 19:50:00,70.7,70.0,29.96,SW,225,0.0,1.0,96,0.00,,,0.00,weatherlink.com 1.10,2013-07-28 23:50:00,
2013-07-28 20:05:00,70.4,69.0,29.96,WNW,285,0.0,1.0,96,0.00,,,0.00,weatherlink.com 1.10,2013-07-29 00:05:00,
2013-07-28 20:20:00,70.4,69.0,29.96,SW,218,0.0,1.0,96,0.00,,,0.00,weatherlink.com 1.10,2013-07-29 00:20:00,
2013-07-28 20:35:00,70.3,69.0,29.96,SSW,207,0.0,1.0,96,0.00,,,0.00,weatherlink.com 1.10,2013-07-29 00:35:00,
2013-07-28 20:50:00,70.3,69.0,29.96,SSW,205,0.0,1.0,97,0.00,,,0.00,weatherlink.com 1.10,2013-07-29 00:50:00,
2013-07-28 21:05:00,70.2,69.0,29.97,SSW,205,0.0,1.0,97,0.00,,,0.00,weatherlink.com 1.10,2013-07-29 01:05:00,
2013-07-28 21:21:00,70.3,69.0,29.98,SSW,193,1.0,1.0,97,0.00,,,0.00,weatherlink.com 1.10,2013-07-29 01:21:00,
2013-07-28 21:51:00,70.2,69.0,30.00,South,179,2.0,2.0,97,0.00,,,0.00,weatherlink.com 1.10,2013-07-29 01:51:00,
2013-07-28 22:06:00,70.0,69.0,29.99,SSE,155,3.0,3.0,97,0.00,,,0.00,weatherlink.com 1.10,2013-07-29 02:06:00,
2013-07-28 22:21:00,70.1,69.0,29.99,SSW,197,3.0,6.0,97,0.01,,,0.01,weatherlink.com 1.10,2013-07-29 02:21:00,
2013-07-28 22:36:00,70.6,70.0,29.98,SE,132,1.0,4.0,97,0.01,,,0.01,weatherlink.com 1.10,2013-07-29 02:36:00,
2013-07-28 23:06:00,70.3,69.0,29.98,SSE,158,2.0,3.0,97,0.01,,,0.01,weatherlink.com 1.10,2013-07-29 03:06:00,
2013-07-28 23:21:00,69.7,69.0,29.97,South,170,3.0,4.0,96,0.00,,,0.01,weatherlink.com 1.10,2013-07-29 03:21:00,
2013-07-28 23:36:00,69.9,69.0,29.97,SSE,153,1.0,5.0,97,0.00,,,0.01,weatherlink.com 1.10,2013-07-29 03:36:00,